Location: Lafig�re
(44.4503°N, 4.0357°E)
Time: 15:52:38
(UTC+00:00)

Vanguard 2 Rocket - Pass Details

Date: 25 June 2021
Orbit: 554 x 3325 km, 32.9° (Epoch: 24 July)

Event Time Altitude Azimuth Distance (km) Brightness Sun altitude
Rises 22:44:17 0° 277° (W) 7,206 11.8 -20.7°
Reaches altitude 10° 22:50:11 10° 269° (W) 5,960 11.2 -21.0°
Maximum altitude 23:04:16 32° 217° (SW) 3,530 9.5 -21.5°
Enters shadow 23:08:14 27° 189° (S) 3,420 9.2 -21.6°
